Hourly Weather Abay (Tyulkubasskiy rayon)

Today, 28 September, Monday

Time Temperature Precipitation Wind Pressure Humidity
00:00 +8°C° 0 mm 5 mps 706 mmHg 39%
01:00 +7°C° 0 mm 5 mps 706 mmHg 41%
02:00 +7°C° 0 mm 5 mps 706 mmHg 42%
03:00 +7°C° 0 mm 5 mps 706 mmHg 43%
04:00 +6°C° 0 mm 5 mps 706 mmHg 43%
05:00 +6°C° 0 mm 5 mps 707 mmHg 43%
06:00 +7°C° 0 mm 5 mps 707 mmHg 41%
07:00 +8°C° 0 mm 5 mps 707 mmHg 39%
08:00 +9°C° 0 mm 5 mps 707 mmHg 36%
09:00 +12°C° 0 mm 5 mps 708 mmHg 33%
10:00 +14°C° 0 mm 5 mps 708 mmHg 29%
11:00 +16°C° 0 mm 5 mps 709 mmHg 25%
12:00 +17°C° 0 mm 5 mps 708 mmHg 24%
13:00 +19°C° 0 mm 5 mps 708 mmHg 23%
14:00 +20°C° 0 mm 5 mps 708 mmHg 22%
15:00 +19°C° 0 mm 6 mps 708 mmHg 23%
16:00 +17°C° 0 mm 6 mps 708 mmHg 25%
17:00 +16°C° 0 mm 6 mps 709 mmHg 26%
18:00 +14°C° 0 mm 6 mps 709 mmHg 28%
19:00 +13°C° 0 mm 6 mps 708 mmHg 30%
20:00 +10°C° 0 mm 6 mps 708 mmHg 32%
21:00 +10°C° 0 mm 6 mps 708 mmHg 34%
22:00 +9°C° 0 mm 5 mps 708 mmHg 35%
23:00 +8°C° 0 mm 5 mps 708 mmHg 36%

Tomorrow, 29 September, Tuesday

Time Temperature Precipitation Wind Pressure Humidity
00:00 +8°C° 0 mm 5 mps 708 mmHg 38%
01:00 +8°C° 0 mm 5 mps 708 mmHg 39%
02:00 +8°C° 0 mm 5 mps 708 mmHg 40%
03:00 +8°C° 0 mm 5 mps 708 mmHg 40%
04:00 +7°C° 0 mm 4 mps 708 mmHg 40%
05:00 +7°C° 0 mm 4 mps 709 mmHg 41%
06:00 +8°C° 0 mm 4 mps 709 mmHg 39%
07:00 +10°C° 0 mm 4 mps 709 mmHg 37%
08:00 +11°C° 0 mm 4 mps 709 mmHg 35%
09:00 +13°C° 0 mm 4 mps 709 mmHg 31%
10:00 +15°C° 0 mm 4 mps 710 mmHg 28%
11:00 +18°C° 0 mm 4 mps 710 mmHg 24%
12:00 +18°C° 0 mm 4 mps 710 mmHg 24%
13:00 +19°C° 0 mm 5 mps 710 mmHg 23%
14:00 +19°C° 0 mm 5 mps 709 mmHg 23%
15:00 +17°C° 0 mm 5 mps 709 mmHg 24%
16:00 +16°C° 0 mm 6 mps 709 mmHg 25%
17:00 +16°C° 0 mm 6 mps 709 mmHg 26%
18:00 +15°C° 0 mm 6 mps 709 mmHg 26%
19:00 +14°C° 0 mm 6 mps 708 mmHg 27%
20:00 +13°C° 0 mm 6 mps 708 mmHg 27%
21:00 +12°C° 0 mm 5 mps 708 mmHg 28%
22:00 +10°C° 0 mm 5 mps 707 mmHg 29%
23:00 +10°C° 0 mm 4 mps 707 mmHg 30%

Day after tomorrow, 30 September, Wednesday

Time Temperature Precipitation Wind Pressure Humidity
00:00 +10°C° 0 mm 4 mps 706 mmHg 30%
01:00 +10°C° 0 mm 4 mps 706 mmHg 31%
02:00 +8°C° 0 mm 4 mps 706 mmHg 32%
03:00 +9°C° 0 mm 3 mps 706 mmHg 33%
04:00 +9°C° 0 mm 2 mps 707 mmHg 33%
05:00 +10°C° 0 mm 1 mps 707 mmHg 34%
06:00 +10°C° 0.1 mm 1 mps 707 mmHg 38%
07:00 +11°C° 0.1 mm 1 mps 708 mmHg 42%
08:00 +11°C° 0.1 mm 1 mps 708 mmHg 45%
09:00 +11°C° 0.2 mm 1 mps 708 mmHg 51%
10:00 +11°C° 0.2 mm 1 mps 709 mmHg 57%
11:00 +12°C° 0.2 mm 1 mps 709 mmHg 63%
12:00 +12°C° 0 mm 1 mps 709 mmHg 62%
13:00 +13°C° 0 mm 1 mps 709 mmHg 60%
14:00 +13°C° 0 mm 1 mps 708 mmHg 59%
15:00 +14°C° 0 mm 1 mps 708 mmHg 58%
16:00 +14°C° 0 mm 2 mps 708 mmHg 57%
17:00 +15°C° 0 mm 2 mps 709 mmHg 56%
18:00 +14°C° 0 mm 2 mps 709 mmHg 60%
19:00 +13°C° 0 mm 2 mps 708 mmHg 64%
20:00 +12°C° 0 mm 2 mps 708 mmHg 69%
21:00 +10°C° 0 mm 2 mps 708 mmHg 70%
22:00 +10°C° 0 mm 2 mps 708 mmHg 71%
23:00 +10°C° 0 mm 2 mps 708 mmHg 72%

1 October, Thursday

Time Temperature Precipitation Wind Pressure Humidity
00:00 +10°C° 0 mm 2 mps 708 mmHg 72%
01:00 +9°C° 0 mm 2 mps 707 mmHg 71%
02:00 +9°C° 0 mm 2 mps 707 mmHg 71%
03:00 +9°C° 0 mm 2 mps 707 mmHg 70%
04:00 +9°C° 0 mm 2 mps 707 mmHg 70%
05:00 +9°C° 0 mm 2 mps 707 mmHg 69%
06:00 +10°C° 0 mm 2 mps 708 mmHg 63%
07:00 +13°C° 0 mm 2 mps 708 mmHg 57%
08:00 +14°C° 0 mm 2 mps 708 mmHg 51%
09:00 +16°C° 0 mm 2 mps 708 mmHg 44%
10:00 +18°C° 0 mm 2 mps 708 mmHg 36%
11:00 +20°C° 0 mm 2 mps 708 mmHg 28%
12:00 +21°C° 0 mm 2 mps 708 mmHg 27%
13:00 +23°C° 0 mm 2 mps 708 mmHg 25%
14:00 +23°C° 0 mm 2 mps 708 mmHg 24%
15:00 +22°C° 0 mm 3 mps 708 mmHg 25%
16:00 +21°C° 0 mm 4 mps 708 mmHg 25%
17:00 +20°C° 0 mm 4 mps 707 mmHg 26%
18:00 +18°C° 0 mm 4 mps 707 mmHg 28%
19:00 +16°C° 0 mm 3 mps 707 mmHg 31%
20:00 +14°C° 0 mm 3 mps 707 mmHg 34%
21:00 +13°C° 0 mm 3 mps 707 mmHg 35%
22:00 +12°C° 0 mm 3 mps 707 mmHg 37%
23:00 +13°C° 0 mm 2 mps 706 mmHg 39%

2 October, Friday

Time Temperature Precipitation Wind Pressure Humidity
00:00 +13°C° 0 mm 2 mps 706 mmHg 40%
01:00 +12°C° 0 mm 2 mps 706 mmHg 40%
02:00 +12°C° 0 mm 2 mps 706 mmHg 41%
03:00 +12°C° 0 mm 2 mps 706 mmHg 42%
04:00 +12°C° 0 mm 2 mps 706 mmHg 42%
05:00 +12°C° 0 mm 2 mps 706 mmHg 43%
06:00 +13°C° 0 mm 2 mps 707 mmHg 40%
07:00 +15°C° 0 mm 1 mps 707 mmHg 37%
08:00 +16°C° 0 mm 1 mps 708 mmHg 34%
09:00 +18°C° 0 mm 2 mps 708 mmHg 29%
10:00 +20°C° 0 mm 2 mps 708 mmHg 24%
11:00 +23°C° 0 mm 2 mps 708 mmHg 19%
12:00 +22°C° 0 mm 3 mps 708 mmHg 18%
13:00 +24°C° 0 mm 3 mps 708 mmHg 17%
14:00 +23°C° 0 mm 4 mps 708 mmHg 16%
15:00 +23°C° 0 mm 4 mps 708 mmHg 17%
16:00 +22°C° 0 mm 3 mps 708 mmHg 18%
17:00 +21°C° 0 mm 3 mps 708 mmHg 19%
18:00 +19°C° 0 mm 2 mps 707 mmHg 23%
19:00 +17°C° 0 mm 2 mps 707 mmHg 27%
20:00 +15°C° 0 mm 2 mps 707 mmHg 31%
21:00 +15°C° 0 mm 2 mps 707 mmHg 31%
22:00 +15°C° 0 mm 2 mps 707 mmHg 32%
23:00 +14°C° 0 mm 2 mps 707 mmHg 33%

3 October, Saturday

Time Temperature Precipitation Wind Pressure Humidity
00:00 +14°C° 0 mm 1 mps 707 mmHg 33%
01:00 +14°C° 0 mm 1 mps 707 mmHg 34%
02:00 +14°C° 0 mm 1 mps 707 mmHg 34%
03:00 +14°C° 0 mm 1 mps 707 mmHg 34%
04:00 +14°C° 0 mm 1 mps 707 mmHg 34%
05:00 +13°C° 0 mm 0 mps 707 mmHg 33%
06:00 +14°C° 0 mm 0 mps 707 mmHg 32%
07:00 +16°C° 0 mm 1 mps 708 mmHg 30%
08:00 +18°C° 0 mm 1 mps 708 mmHg 28%
09:00 +19°C° 0 mm 1 mps 708 mmHg 25%
10:00 +20°C° 0 mm 2 mps 708 mmHg 22%
11:00 +21°C° 0 mm 3 mps 708 mmHg 19%
12:00 +22°C° 0 mm 3 mps 708 mmHg 18%
13:00 +22°C° 0 mm 4 mps 708 mmHg 17%
14:00 +23°C° 0 mm 5 mps 708 mmHg 15%
15:00 +22°C° 0 mm 4 mps 708 mmHg 16%
16:00 +21°C° 0 mm 4 mps 708 mmHg 17%
17:00 +21°C° 0 mm 3 mps 708 mmHg 17%
18:00 +19°C° 0 mm 3 mps 708 mmHg 20%
19:00 +17°C° 0 mm 2 mps 708 mmHg 23%
20:00 +15°C° 0 mm 1 mps 708 mmHg 26%
21:00 +14°C° 0 mm 1 mps 708 mmHg 28%
22:00 +14°C° 0 mm 1 mps 708 mmHg 29%
23:00 +13°C° 0 mm 1 mps 708 mmHg 30%
Show more